Time,TemperatureF,DewpointF,PressureIn,WindDirection,WindDirectionDegrees,WindSpeedMPH,WindSpeedGustMPH,Humidity,HourlyPrecipIn,Conditions,Clouds,dailyrainin,SoftwareType,DateUTC
2013-08-12 00:01:00,59.9,54.4,29.84,WSW,244,0.0,0.0,82,0.00,,---,0.00,VWS V14.01,2013-08-12 07:01:00,
2013-08-12 00:11:00,59.6,54.1,29.84,WSW,244,0.0,0.0,82,0.00,,---,0.00,VWS V14.01,2013-08-12 07:11:00,
2013-08-12 00:16:00,59.5,54.0,29.84,WSW,244,0.0,0.0,82,0.00,,---,0.00,VWS V14.01,2013-08-12 07:16:00,
2013-08-12 00:21:00,59.3,53.8,29.84,WSW,244,0.0,0.0,82,0.00,,---,0.00,VWS V14.01,2013-08-12 07:21:00,
2013-08-12 00:26:00,59.2,53.7,29.84,WSW,244,0.0,0.0,82,0.00,,---,0.00,VWS V14.01,2013-08-12 07:26:00,
2013-08-12 00:31:00,59.0,53.8,29.84,WSW,244,0.0,0.0,83,0.00,,---,0.00,VWS V14.01,2013-08-12 07:31:00,
2013-08-12 00:41:00,58.7,53.6,29.84,WSW,244,0.0,0.0,83,0.00,,---,0.00,VWS V14.01,2013-08-12 07:41:00,
2013-08-12 00:46:00,58.7,53.6,29.84,WSW,244,0.0,0.0,83,0.00,,---,0.00,VWS V14.01,2013-08-12 07:46:00,
2013-08-12 00:51:00,58.6,53.5,29.84,WSW,244,0.0,0.0,83,0.00,,---,0.00,VWS V14.01,2013-08-12 07:51:00,
2013-08-12 00:56:00,58.6,53.5,29.84,WSW,244,0.0,0.0,83,0.00,,---,0.00,VWS V14.01,2013-08-12 07:56:00,
2013-08-12 01:06:00,58.4,53.6,29.83,WSW,244,0.0,0.0,84,0.00,,---,0.00,VWS V14.01,2013-08-12 08:06:00,
2013-08-12 01:16:00,58.3,53.5,29.83,WSW,244,0.0,0.0,84,0.00,,---,0.00,VWS V14.01,2013-08-12 08:16:00,
2013-08-12 01:22:00,58.1,53.3,29.83,WSW,244,0.0,0.0,84,0.00,,---,0.00,VWS V14.01,2013-08-12 08:22:00,
2013-08-12 01:31:00,58.0,53.2,29.83,WSW,244,0.0,0.0,84,0.00,,---,0.00,VWS V14.01,2013-08-12 08:31:00,
2013-08-12 01:36:00,57.8,53.3,29.83,WSW,244,0.0,0.0,85,0.00,,---,0.00,VWS V14.01,2013-08-12 08:36:00,
2013-08-12 01:41:00,57.6,53.1,29.83,WSW,244,0.0,0.0,85,0.00,,---,0.00,VWS V14.01,2013-08-12 08:41:00,
2013-08-12 01:51:00,57.3,52.8,29.83,WSW,244,0.0,0.0,85,0.00,,---,0.00,VWS V14.01,2013-08-12 08:51:00,
2013-08-12 02:02:00,57.0,52.5,29.83,WSW,244,0.0,0.0,85,0.00,,---,0.00,VWS V14.01,2013-08-12 09:02:00,
2013-08-12 02:11:00,56.9,52.4,29.83,WSW,244,0.0,0.0,85,0.00,,---,0.00,VWS V14.01,2013-08-12 09:11:00,
2013-08-12 02:21:00,56.7,52.2,29.83,WSW,244,0.0,0.0,85,0.00,,---,0.00,VWS V14.01,2013-08-12 09:21:00,
2013-08-12 02:26:00,56.7,52.6,29.83,WSW,244,0.0,0.0,86,0.00,,---,0.00,VWS V14.01,2013-08-12 09:26:00,
2013-08-12 02:31:00,56.6,52.5,29.83,WSW,244,0.0,0.0,86,0.00,,---,0.00,VWS V14.01,2013-08-12 09:31:00,
2013-08-12 02:41:00,56.5,52.4,29.83,WSW,244,0.0,0.0,86,0.00,,---,0.00,VWS V14.01,2013-08-12 09:41:00,
2013-08-12 02:46:00,56.3,52.2,29.83,WSW,244,0.0,0.0,86,0.00,,---,0.00,VWS V14.01,2013-08-12 09:46:00,
2013-08-12 02:51:00,56.2,52.1,29.83,WSW,244,0.0,0.0,86,0.00,,---,0.00,VWS V14.01,2013-08-12 09:51:00,
2013-08-12 03:01:00,55.9,51.8,29.82,WSW,244,0.0,0.0,86,0.00,,---,0.00,VWS V14.01,2013-08-12 10:01:00,
2013-08-12 03:11:00,55.7,51.6,29.82,WSW,244,0.0,0.0,86,0.00,,---,0.00,VWS V14.01,2013-08-12 10:11:00,
2013-08-12 03:21:00,55.4,51.3,29.82,WSW,244,0.0,0.0,86,0.00,,---,0.00,VWS V14.01,2013-08-12 10:21:00,
2013-08-12 03:26:00,55.4,51.3,29.82,WSW,244,0.0,0.0,86,0.00,,---,0.00,VWS V14.01,2013-08-12 10:26:00,
2013-08-12 03:31:00,55.4,51.3,29.82,WSW,244,0.0,0.0,86,0.00,,---,0.00,VWS V14.01,2013-08-12 10:31:00,
2013-08-12 03:36:00,55.3,51.2,29.82,WSW,244,0.0,0.0,86,0.00,,---,0.00,VWS V14.01,2013-08-12 10:36:00,
2013-08-12 03:46:00,55.4,51.6,29.83,WSW,244,0.0,0.0,87,0.00,,---,0.00,VWS V14.01,2013-08-12 10:46:00,
2013-08-12 03:51:00,55.4,51.6,29.83,WSW,244,0.0,0.0,87,0.00,,---,0.00,VWS V14.01,2013-08-12 10:51:00,
2013-08-12 04:01:00,55.7,51.9,29.83,WSW,244,0.0,0.0,87,0.00,,---,0.00,VWS V14.01,2013-08-12 11:01:00,
2013-08-12 04:06:00,56.0,52.5,29.83,WSW,244,0.0,0.0,88,0.00,,---,0.00,VWS V14.01,2013-08-12 11:06:00,
2013-08-12 04:16:00,56.6,53.1,29.83,WSW,244,0.0,0.0,88,0.00,,---,0.00,VWS V14.01,2013-08-12 11:16:00,
2013-08-12 04:21:00,56.6,53.4,29.83,WSW,244,0.0,0.0,89,0.00,,---,0.00,VWS V14.01,2013-08-12 11:21:00,
2013-08-12 04:26:00,56.7,53.5,29.83,WSW,244,0.0,0.0,89,0.00,,---,0.00,VWS V14.01,2013-08-12 11:26:00,
2013-08-12 04:31:00,56.9,53.7,29.83,WSW,244,0.0,0.0,89,0.00,,---,0.00,VWS V14.01,2013-08-12 11:31:00,
2013-08-12 04:36:00,56.9,53.7,29.83,WSW,244,0.0,0.0,89,0.00,,---,0.00,VWS V14.01,2013-08-12 11:36:00,
2013-08-12 04:46:00,57.0,53.8,29.84,WSW,244,0.0,0.0,89,0.00,,---,0.00,VWS V14.01,2013-08-12 11:46:00,
2013-08-12 04:51:00,57.0,53.8,29.84,WSW,244,0.0,0.0,89,0.00,,---,0.00,VWS V14.01,2013-08-12 11:51:00,
2013-08-12 05:01:00,57.0,54.1,29.84,WSW,244,0.0,0.0,90,0.00,,---,0.00,VWS V14.01,2013-08-12 12:01:00,
2013-08-12 05:06:00,57.0,54.1,29.84,WSW,244,0.0,0.0,90,0.00,,---,0.00,VWS V14.01,2013-08-12 12:06:00,
2013-08-12 05:11:00,56.9,54.0,29.84,WSW,244,0.0,0.0,90,0.00,,---,0.00,VWS V14.01,2013-08-12 12:11:00,
2013-08-12 05:16:00,56.9,54.0,29.84,WSW,244,0.0,0.0,90,0.00,,---,0.00,VWS V14.01,2013-08-12 12:16:00,
2013-08-12 05:26:00,56.7,53.8,29.84,WSW,244,0.0,0.0,90,0.00,,---,0.00,VWS V14.01,2013-08-12 12:26:00,
2013-08-12 05:31:00,56.7,54.1,29.84,WSW,244,0.0,0.0,91,0.00,,---,0.00,VWS V14.01,2013-08-12 12:31:00,
2013-08-12 05:36:00,56.6,54.0,29.84,WSW,244,0.0,0.0,91,0.00,,---,0.00,VWS V14.01,2013-08-12 12:36:00,
2013-08-12 05:41:00,56.6,54.0,29.84,WSW,244,0.0,0.0,91,0.00,,---,0.00,VWS V14.01,2013-08-12 12:41:00,
2013-08-12 05:51:00,56.6,54.0,29.84,WSW,244,0.0,0.0,91,0.00,,---,0.00,VWS V14.01,2013-08-12 12:51:00,
2013-08-12 05:56:00,56.6,54.0,29.84,WSW,244,0.0,0.0,91,0.00,,---,0.00,VWS V14.01,2013-08-12 12:56:00,
2013-08-12 06:01:00,56.6,54.0,29.84,WSW,244,0.0,0.0,91,0.00,,---,0.00,VWS V14.01,2013-08-12 13:01:00,
2013-08-12 06:11:00,56.5,54.2,29.84,WSW,244,0.0,0.0,92,0.00,,---,0.00,VWS V14.01,2013-08-12 13:11:00,
2013-08-12 06:16:00,56.5,54.2,29.85,WSW,244,0.0,0.0,92,0.00,,---,0.00,VWS V14.01,2013-08-12 13:16:00,
2013-08-12 06:21:00,56.5,54.2,29.85,WSW,244,0.0,0.0,92,0.00,,---,0.00,VWS V14.01,2013-08-12 13:21:00,
2013-08-12 06:31:00,56.5,54.2,29.86,WSW,244,0.0,0.0,92,0.00,,---,0.00,VWS V14.01,2013-08-12 13:31:00,
2013-08-12 06:41:00,56.5,54.2,29.86,WSW,244,0.0,0.0,92,0.00,,---,0.00,VWS V14.01,2013-08-12 13:41:00,
2013-08-12 06:46:00,56.5,54.2,29.86,WSW,244,0.0,0.0,92,0.00,,---,0.00,VWS V14.01,2013-08-12 13:46:00,
2013-08-12 06:56:00,56.5,54.2,29.86,WSW,244,0.0,0.0,92,0.00,,---,0.00,VWS V14.01,2013-08-12 13:56:00,
2013-08-12 07:01:00,56.3,54.3,29.86,WSW,244,0.0,0.0,93,0.00,,---,0.00,VWS V14.01,2013-08-12 14:01:00,
2013-08-12 07:06:00,56.5,54.5,29.86,WSW,244,0.0,0.0,93,0.00,,---,0.00,VWS V14.01,2013-08-12 14:06:00,
2013-08-12 07:11:00,56.5,54.5,29.86,WSW,244,0.0,0.0,93,0.00,,---,0.00,VWS V14.01,2013-08-12 14:11:00,
2013-08-12 07:21:00,56.6,54.6,29.87,WSW,244,0.0,0.0,93,0.00,,---,0.00,VWS V14.01,2013-08-12 14:21:00,
2013-08-12 07:26:00,56.6,54.6,29.87,WSW,244,0.0,0.0,93,0.00,,---,0.00,VWS V14.01,2013-08-12 14:26:00,
2013-08-12 07:31:00,56.7,54.7,29.87,WSW,244,0.0,0.0,93,0.00,,---,0.00,VWS V14.01,2013-08-12 14:31:00,
2013-08-12 07:36:00,56.7,54.7,29.87,WSW,244,0.0,0.0,93,0.00,,---,0.00,VWS V14.01,2013-08-12 14:36:00,
2013-08-12 07:46:00,56.9,54.9,29.87,WSW,244,0.0,0.0,93,0.00,,---,0.00,VWS V14.01,2013-08-12 14:46:00,
2013-08-12 07:51:00,57.2,55.5,29.87,WSW,244,0.0,0.0,94,0.00,,---,0.00,VWS V14.01,2013-08-12 14:51:00,
2013-08-12 07:56:00,57.3,55.6,29.87,WSW,244,0.0,0.0,94,0.00,,---,0.00,VWS V14.01,2013-08-12 14:56:00,
2013-08-12 08:01:00,57.3,55.6,29.88,WSW,244,0.0,0.0,94,0.00,,---,0.00,VWS V14.01,2013-08-12 15:01:00,
2013-08-12 08:11:00,57.6,55.9,29.88,WSW,244,0.0,0.0,94,0.00,,---,0.00,VWS V14.01,2013-08-12 15:11:00,
2013-08-12 08:21:00,57.6,55.9,29.89,WSW,244,0.0,0.0,94,0.00,,---,0.00,VWS V14.01,2013-08-12 15:21:00,
2013-08-12 08:26:00,57.8,56.1,29.89,WSW,244,0.0,0.0,94,0.00,,---,0.00,VWS V14.01,2013-08-12 15:26:00,
2013-08-12 08:31:00,58.1,56.7,29.89,WSW,244,0.0,0.0,95,0.00,,---,0.00,VWS V14.01,2013-08-12 15:31:00,
2013-08-12 08:36:00,58.7,57.0,29.89,WSW,244,0.0,0.0,94,0.00,,---,0.00,VWS V14.01,2013-08-12 15:36:00,
2013-08-12 08:46:00,59.2,57.5,29.89,WSW,248,0.0,0.0,94,0.00,,---,0.00,VWS V14.01,2013-08-12 15:46:00,
2013-08-12 08:51:00,59.3,57.6,29.89,WSW,248,0.0,0.0,94,0.00,,---,0.00,VWS V14.01,2013-08-12 15:51:00,
2013-08-12 08:56:00,59.8,58.1,29.89,WSW,248,0.0,0.0,94,0.00,,---,0.00,VWS V14.01,2013-08-12 15:56:00,
2013-08-12 09:06:00,60.1,58.4,29.89,WSW,247,0.0,0.0,94,0.00,,---,0.00,VWS V14.01,2013-08-12 16:06:00,
2013-08-12 09:16:00,60.5,58.8,29.89,WSW,247,0.0,0.0,94,0.00,,---,0.00,VWS V14.01,2013-08-12 16:16:00,
2013-08-12 09:21:00,60.7,59.0,29.89,WSW,247,0.0,0.0,94,0.00,,---,0.00,VWS V14.01,2013-08-12 16:21:00,
2013-08-12 09:26:00,60.9,59.2,29.89,WSW,248,0.0,0.0,94,0.00,,---,0.00,VWS V14.01,2013-08-12 16:26:00,
2013-08-12 09:31:00,61.0,59.0,29.89,WSW,244,0.0,0.0,93,0.00,,---,0.00,VWS V14.01,2013-08-12 16:31:00,
2013-08-12 09:36:00,61.8,60.1,29.89,WSW,243,0.0,0.0,94,0.00,,---,0.00,VWS V14.01,2013-08-12 16:36:00,
2013-08-12 09:41:00,62.6,60.5,29.89,SSW,205,0.0,0.0,93,0.00,,---,0.00,VWS V14.01,2013-08-12 16:41:00,
2013-08-12 09:46:00,63.1,60.7,29.89,South,188,0.0,0.0,92,0.00,,---,0.00,VWS V14.01,2013-08-12 16:46:00,
2013-08-12 09:56:00,64.5,60.9,29.89,South,185,0.0,0.0,88,0.00,,---,0.00,VWS V14.01,2013-08-12 16:56:00,
2013-08-12 10:01:00,65.5,61.2,29.88,South,191,0.0,0.0,86,0.00,,---,0.00,VWS V14.01,2013-08-12 17:01:00,
2013-08-12 10:06:00,66.0,61.4,29.88,South,191,0.0,0.0,85,0.00,,---,0.00,VWS V14.01,2013-08-12 17:06:00,
2013-08-12 10:16:00,67.3,61.6,29.89,SSW,195,0.0,0.0,82,0.00,,---,0.00,VWS V14.01,2013-08-12 17:16:00,
2013-08-12 10:21:00,68.8,62.4,29.89,SSE,162,0.0,0.0,80,0.00,,---,0.00,VWS V14.01,2013-08-12 17:21:00,
2013-08-12 10:31:00,70.4,61.0,29.88,South,176,0.0,0.0,72,0.00,,---,0.00,VWS V14.01,2013-08-12 17:31:00,
2013-08-12 10:36:00,70.8,60.9,29.88,SW,222,0.0,0.0,71,0.00,,---,0.00,VWS V14.01,2013-08-12 17:36:00,
2013-08-12 10:41:00,72.0,61.3,29.88,SW,220,0.0,0.0,69,0.00,,---,0.00,VWS V14.01,2013-08-12 17:41:00,
2013-08-12 10:46:00,73.2,61.6,29.88,West,263,0.0,0.0,67,0.00,,---,0.00,VWS V14.01,2013-08-12 17:46:00,
2013-08-12 10:51:00,73.7,60.8,29.88,WSW,258,0.0,0.0,64,0.00,,---,0.00,VWS V14.01,2013-08-12 17:51:00,
2013-08-12 10:56:00,73.7,60.8,29.88,West,260,0.0,0.0,64,0.00,,---,0.00,VWS V14.01,2013-08-12 17:56:00,
2013-08-12 11:01:00,74.0,61.1,29.87,SW,227,0.0,0.0,64,0.00,,---,0.00,VWS V14.01,2013-08-12 18:01:00,
2013-08-12 11:11:00,75.4,61.5,29.87,SSW,193,0.0,0.0,62,0.00,,---,0.00,VWS V14.01,2013-08-12 18:11:00,
2013-08-12 11:16:00,75.4,61.5,29.87,SW,230,0.0,0.0,62,0.00,,---,0.00,VWS V14.01,2013-08-12 18:16:00,
2013-08-12 11:26:00,77.0,60.6,29.87,SW,234,0.0,0.0,57,0.00,,---,0.00,VWS V14.01,2013-08-12 18:26:00,
2013-08-12 11:36:00,77.4,60.5,29.87,WSW,253,0.0,0.0,56,0.00,,---,0.00,VWS V14.01,2013-08-12 18:36:00,
2013-08-12 11:46:00,79.0,62.0,29.86,SW,232,0.0,1.0,56,0.00,,---,0.00,VWS V14.01,2013-08-12 18:46:00,
2013-08-12 11:51:00,79.8,60.6,29.86,SW,220,1.0,2.0,52,0.00,,---,0.00,VWS V14.01,2013-08-12 18:51:00,
2013-08-12 11:56:00,79.9,60.2,29.86,SSW,210,0.0,1.0,51,0.00,,---,0.00,VWS V14.01,2013-08-12 18:56:00,
2013-08-12 12:01:00,80.5,62.3,29.86,SSE,162,0.0,0.0,54,0.00,,---,0.00,VWS V14.01,2013-08-12 19:01:00,
2013-08-12 12:06:00,80.5,62.3,29.86,SW,234,1.0,1.0,54,0.00,,---,0.00,VWS V14.01,2013-08-12 19:06:00,
2013-08-12 12:16:00,81.6,62.8,29.85,South,186,0.0,1.0,53,0.00,,---,0.00,VWS V14.01,2013-08-12 19:16:00,
2013-08-12 12:21:00,81.2,62.5,29.85,WSW,241,0.0,1.0,53,0.00,,---,0.00,VWS V14.01,2013-08-12 19:21:00,
2013-08-12 12:26:00,81.6,62.3,29.85,WSW,254,1.0,2.0,52,0.00,,---,0.00,VWS V14.01,2013-08-12 19:26:00,
2013-08-12 12:31:00,81.8,62.5,29.85,WSW,254,1.0,3.0,52,0.00,,---,0.00,VWS V14.01,2013-08-12 19:31:00,
2013-08-12 12:36:00,82.4,62.5,29.85,SSW,208,0.0,1.0,51,0.00,,---,0.00,VWS V14.01,2013-08-12 19:36:00,
2013-08-12 12:46:00,82.2,63.4,29.84,SW,223,0.0,3.0,53,0.00,,---,0.00,VWS V14.01,2013-08-12 19:46:00,
2013-08-12 12:51:00,82.8,63.4,29.84,SW,220,1.0,5.0,52,0.00,,---,0.00,VWS V14.01,2013-08-12 19:51:00,
2013-08-12 13:01:00,83.2,64.3,29.84,SSW,199,0.0,7.0,53,0.00,,---,0.00,VWS V14.01,2013-08-12 20:01:00,
2013-08-12 13:06:00,82.8,62.8,29.84,WSW,240,0.0,8.0,51,0.00,,---,0.00,VWS V14.01,2013-08-12 20:06:00,
2013-08-12 13:16:00,83.2,63.8,29.84,SSW,198,0.0,11.0,52,0.00,,---,0.00,VWS V14.01,2013-08-12 20:16:00,
2013-08-12 13:26:00,83.0,63.0,29.84,West,271,0.0,6.0,51,0.00,,---,0.00,VWS V14.01,2013-08-12 20:26:00,
2013-08-12 13:31:00,83.8,63.2,29.83,WSW,239,2.0,7.0,50,0.00,,---,0.00,VWS V14.01,2013-08-12 20:31:00,
2013-08-12 13:36:00,83.4,62.8,29.83,WSW,244,0.0,3.0,50,0.00,,---,0.00,VWS V14.01,2013-08-12 20:36:00,
2013-08-12 13:41:00,84.0,63.9,29.83,WSW,247,8.0,8.0,51,0.00,,---,0.00,VWS V14.01,2013-08-12 20:41:00,
2013-08-12 13:46:00,84.0,62.8,29.83,SW,226,0.0,8.0,49,0.00,,---,0.00,VWS V14.01,2013-08-12 20:46:00,
2013-08-12 13:51:00,84.1,62.9,29.83,WSW,243,0.0,11.0,49,0.00,,---,0.00,VWS V14.01,2013-08-12 20:51:00,
2013-08-12 13:56:00,83.8,63.2,29.83,WSW,239,0.0,11.0,50,0.00,,---,0.00,VWS V14.01,2013-08-12 20:56:00,
2013-08-12 14:01:00,84.3,63.7,29.83,SSW,200,0.0,10.0,50,0.00,,---,0.00,VWS V14.01,2013-08-12 21:01:00,
2013-08-12 14:11:00,83.4,63.4,29.83,WSW,247,0.0,6.0,51,0.00,,---,0.00,VWS V14.01,2013-08-12 21:11:00,
2013-08-12 14:16:00,84.1,63.5,29.82,South,178,6.0,8.0,50,0.00,,---,0.00,VWS V14.01,2013-08-12 21:16:00,
2013-08-12 14:26:00,83.8,63.8,29.82,WSW,248,0.0,8.0,51,0.00,,---,0.00,VWS V14.01,2013-08-12 21:26:00,
2013-08-12 14:31:00,83.8,63.8,29.82,WSW,237,2.0,10.0,51,0.00,,---,0.00,VWS V14.01,2013-08-12 21:31:00,
2013-08-12 14:36:00,84.3,64.2,29.82,West,274,2.0,7.0,51,0.00,,---,0.00,VWS V14.01,2013-08-12 21:36:00,
2013-08-12 14:41:00,83.8,63.8,29.82,SSW,199,0.0,11.0,51,0.00,,---,0.00,VWS V14.01,2013-08-12 21:41:00,
2013-08-12 14:46:00,84.9,64.2,29.82,SSW,210,0.0,9.0,50,0.00,,---,0.00,VWS V14.01,2013-08-12 21:46:00,
2013-08-12 14:51:00,85.1,63.8,29.82,SSW,209,0.0,7.0,49,0.00,,---,0.00,VWS V14.01,2013-08-12 21:51:00,
2013-08-12 14:56:00,84.9,64.2,29.82,SSW,200,0.0,11.0,50,0.00,,---,0.00,VWS V14.01,2013-08-12 21:56:00,
2013-08-12 15:06:00,84.3,63.7,29.82,WSW,243,7.0,10.0,50,0.00,,---,0.00,VWS V14.01,2013-08-12 22:06:00,
2013-08-12 15:11:00,83.4,64.0,29.82,SW,227,5.0,9.0,52,0.00,,---,0.00,VWS V14.01,2013-08-12 22:11:00,
2013-08-12 15:16:00,83.2,63.2,29.82,SSW,203,0.0,9.0,51,0.00,,---,0.00,VWS V14.01,2013-08-12 22:16:00,
2013-08-12 15:26:00,83.2,62.7,29.82,West,272,1.0,8.0,50,0.00,,---,0.00,VWS V14.01,2013-08-12 22:26:00,
2013-08-12 15:36:00,83.6,63.0,29.82,SSE,162,7.0,8.0,50,0.00,,---,0.00,VWS V14.01,2013-08-12 22:36:00,
2013-08-12 15:46:00,83.6,60.7,29.82,SSE,160,3.0,10.0,46,0.00,,---,0.00,VWS V14.01,2013-08-12 22:46:00,
2013-08-12 15:51:00,83.0,60.7,29.82,SW,217,0.0,11.0,47,0.00,,---,0.00,VWS V14.01,2013-08-12 22:51:00,
2013-08-12 16:01:00,83.2,60.9,29.82,WSW,237,0.0,8.0,47,0.00,,---,0.00,VWS V14.01,2013-08-12 23:01:00,
2013-08-12 16:06:00,83.6,61.3,29.82,West,277,8.0,10.0,47,0.00,,---,0.00,VWS V14.01,2013-08-12 23:06:00,
2013-08-12 16:16:00,82.4,60.8,29.81,SSW,198,3.0,6.0,48,0.00,,---,0.00,VWS V14.01,2013-08-12 23:16:00,
2013-08-12 16:21:00,82.4,60.2,29.81,SW,234,1.0,5.0,47,0.00,,---,0.00,VWS V14.01,2013-08-12 23:21:00,
2013-08-12 16:31:00,82.6,60.9,29.82,West,267,5.0,6.0,48,0.00,,---,0.00,VWS V14.01,2013-08-12 23:31:00,
2013-08-12 16:41:00,82.0,60.4,29.82,SSW,208,0.0,5.0,48,0.00,,---,0.00,VWS V14.01,2013-08-12 23:41:00,
2013-08-12 16:46:00,81.8,60.8,29.81,WSW,254,0.0,7.0,49,0.00,,---,0.00,VWS V14.01,2013-08-12 23:46:00,
2013-08-12 16:51:00,81.6,60.6,29.81,WSW,251,4.0,7.0,49,0.00,,---,0.00,VWS V14.01,2013-08-12 23:51:00,
2013-08-12 16:56:00,81.4,61.0,29.81,WSW,241,0.0,7.0,50,0.00,,---,0.00,VWS V14.01,2013-08-12 23:56:00,
2013-08-12 17:01:00,80.9,60.5,29.81,SW,227,0.0,7.0,50,0.00,,---,0.00,VWS V14.01,2013-08-13 00:01:00,
2013-08-12 17:06:00,80.7,60.9,29.81,SSW,193,0.0,5.0,51,0.00,,---,0.00,VWS V14.01,2013-08-13 00:06:00,
2013-08-12 17:16:00,81.1,61.3,29.81,WSW,253,0.0,7.0,51,0.00,,---,0.00,VWS V14.01,2013-08-13 00:16:00,
2013-08-12 17:21:00,80.5,60.7,29.81,WSW,241,0.0,7.0,51,0.00,,---,0.00,VWS V14.01,2013-08-13 00:21:00,
2013-08-12 17:26:00,80.7,60.9,29.81,WSW,240,6.0,6.0,51,0.00,,---,0.00,VWS V14.01,2013-08-13 00:26:00,
2013-08-12 17:31:00,80.9,60.5,29.81,SW,233,0.0,7.0,50,0.00,,---,0.00,VWS V14.01,2013-08-13 00:31:00,
2013-08-12 17:41:00,81.6,62.3,29.81,SW,229,3.0,3.0,52,0.00,,---,0.00,VWS V14.01,2013-08-13 00:41:00,
2013-08-12 17:51:00,81.4,61.5,29.81,West,274,0.0,0.0,51,0.00,,---,0.00,VWS V14.01,2013-08-13 00:51:00,
2013-08-12 17:56:00,81.2,61.9,29.81,WSW,240,0.0,1.0,52,0.00,,---,0.00,VWS V14.01,2013-08-13 00:56:00,
2013-08-12 18:06:00,80.9,62.2,29.80,WSW,258,0.0,1.0,53,0.00,,---,0.00,VWS V14.01,2013-08-13 01:06:00,
2013-08-12 18:11:00,80.1,62.0,29.80,WSW,251,0.0,4.0,54,0.00,,---,0.00,VWS V14.01,2013-08-13 01:11:00,
2013-08-12 18:21:00,79.4,61.8,29.81,SW,223,0.0,6.0,55,0.00,,---,0.00,VWS V14.01,2013-08-13 01:21:00,
2013-08-12 18:26:00,79.0,62.0,29.81,WSW,240,0.0,0.0,56,0.00,,---,0.00,VWS V14.01,2013-08-13 01:26:00,
2013-08-12 18:31:00,78.5,62.0,29.81,WSW,248,0.0,7.0,57,0.00,,---,0.00,VWS V14.01,2013-08-13 01:31:00,
2013-08-12 18:36:00,77.9,62.0,29.81,SW,215,0.0,6.0,58,0.00,,---,0.00,VWS V14.01,2013-08-13 01:36:00,
2013-08-12 18:41:00,77.0,61.6,29.81,SW,215,0.0,0.0,59,0.00,,---,0.00,VWS V14.01,2013-08-13 01:41:00,
2013-08-12 18:46:00,76.3,61.4,29.81,SW,215,0.0,0.0,60,0.00,,---,0.00,VWS V14.01,2013-08-13 01:46:00,
2013-08-12 18:56:00,74.6,61.2,29.81,SW,215,0.0,0.0,63,0.00,,---,0.00,VWS V14.01,2013-08-13 01:56:00,
2013-08-12 19:01:00,73.9,61.0,29.81,SW,215,0.0,0.0,64,0.00,,---,0.00,VWS V14.01,2013-08-13 02:01:00,
2013-08-12 19:11:00,72.7,60.7,29.81,SW,215,0.0,0.0,66,0.00,,---,0.00,VWS V14.01,2013-08-13 02:11:00,
2013-08-12 19:16:00,72.1,60.5,29.82,SW,215,0.0,0.0,67,0.00,,---,0.00,VWS V14.01,2013-08-13 02:16:00,
2013-08-12 19:21:00,71.8,60.3,29.82,SW,215,0.0,0.0,67,0.00,,---,0.00,VWS V14.01,2013-08-13 02:21:00,
2013-08-12 19:26:00,71.3,60.2,29.82,SW,215,0.0,0.0,68,0.00,,---,0.00,VWS V14.01,2013-08-13 02:26:00,
2013-08-12 19:36:00,70.3,60.1,29.82,SW,215,0.0,0.0,70,0.00,,---,0.00,VWS V14.01,2013-08-13 02:36:00,
2013-08-12 19:41:00,69.9,59.7,29.82,SW,215,0.0,0.0,70,0.00,,---,0.00,VWS V14.01,2013-08-13 02:41:00,
2013-08-12 19:46:00,69.6,59.8,29.83,SW,215,0.0,0.0,71,0.00,,---,0.00,VWS V14.01,2013-08-13 02:46:00,
2013-08-12 19:56:00,68.9,59.5,29.83,SW,215,0.0,0.0,72,0.00,,---,0.00,VWS V14.01,2013-08-13 02:56:00,
2013-08-12 20:06:00,68.1,59.1,29.83,SW,215,0.0,0.0,73,0.00,,---,0.00,VWS V14.01,2013-08-13 03:06:00,
2013-08-12 20:11:00,67.8,59.2,29.83,SW,215,0.0,0.0,74,0.00,,---,0.00,VWS V14.01,2013-08-13 03:11:00,
2013-08-12 20:21:00,67.1,58.9,29.84,SW,215,0.0,0.0,75,0.00,,---,0.00,VWS V14.01,2013-08-13 03:21:00,
2013-08-12 20:26:00,66.8,59.0,29.84,SW,215,0.0,0.0,76,0.00,,---,0.00,VWS V14.01,2013-08-13 03:26:00,
2013-08-12 20:31:00,66.4,58.6,29.84,SW,215,0.0,0.0,76,0.00,,---,0.00,VWS V14.01,2013-08-13 03:31:00,
2013-08-12 20:36:00,66.3,58.5,29.84,SW,215,0.0,0.0,76,0.00,,---,0.00,VWS V14.01,2013-08-13 03:36:00,
2013-08-12 20:41:00,66.1,58.7,29.84,SW,215,0.0,0.0,77,0.00,,---,0.00,VWS V14.01,2013-08-13 03:41:00,
2013-08-12 20:46:00,66.1,58.7,29.84,SW,215,0.0,0.0,77,0.00,,---,0.00,VWS V14.01,2013-08-13 03:46:00,
2013-08-12 20:56:00,65.8,58.4,29.84,SW,215,0.0,0.0,77,0.00,,---,0.00,VWS V14.01,2013-08-13 03:56:00,
2013-08-12 21:01:00,65.6,58.2,29.84,SW,215,0.0,0.0,77,0.00,,---,0.00,VWS V14.01,2013-08-13 04:01:00,
2013-08-12 21:06:00,65.5,58.5,29.84,SW,215,0.0,0.0,78,0.00,,---,0.00,VWS V14.01,2013-08-13 04:06:00,
2013-08-12 21:11:00,65.2,58.2,29.84,SW,215,0.0,0.0,78,0.00,,---,0.00,VWS V14.01,2013-08-13 04:11:00,
2013-08-12 21:16:00,65.0,58.3,29.84,SW,215,0.0,0.0,79,0.00,,---,0.00,VWS V14.01,2013-08-13 04:16:00,
2013-08-12 21:21:00,64.8,58.1,29.84,SW,215,0.0,0.0,79,0.00,,---,0.00,VWS V14.01,2013-08-13 04:21:00,
2013-08-12 21:26:00,64.5,57.8,29.84,SW,215,0.0,0.0,79,0.00,,---,0.00,VWS V14.01,2013-08-13 04:26:00,
2013-08-12 21:31:00,64.3,58.0,29.85,SW,215,0.0,0.0,80,0.00,,---,0.00,VWS V14.01,2013-08-13 04:31:00,
2013-08-12 21:36:00,64.2,57.9,29.85,SW,215,0.0,0.0,80,0.00,,---,0.00,VWS V14.01,2013-08-13 04:36:00,
2013-08-12 21:41:00,64.0,57.7,29.85,SW,215,0.0,0.0,80,0.00,,---,0.00,VWS V14.01,2013-08-13 04:41:00,
2013-08-12 21:46:00,63.9,57.6,29.85,SW,215,0.0,0.0,80,0.00,,---,0.00,VWS V14.01,2013-08-13 04:46:00,
2013-08-12 21:51:00,63.7,57.8,29.85,SW,215,0.0,0.0,81,0.00,,---,0.00,VWS V14.01,2013-08-13 04:51:00,
2013-08-12 21:56:00,63.5,57.6,29.85,SW,215,0.0,0.0,81,0.00,,---,0.00,VWS V14.01,2013-08-13 04:56:00,
2013-08-12 22:01:00,63.4,57.5,29.85,SW,215,0.0,0.0,81,0.00,,---,0.00,VWS V14.01,2013-08-13 05:01:00,
2013-08-12 22:06:00,63.2,57.3,29.85,SW,215,0.0,0.0,81,0.00,,---,0.00,VWS V14.01,2013-08-13 05:06:00,
2013-08-12 22:11:00,63.1,57.2,29.85,SW,215,0.0,0.0,81,0.00,,---,0.00,VWS V14.01,2013-08-13 05:11:00,
2013-08-12 22:21:00,62.9,57.3,29.85,SW,215,0.0,0.0,82,0.00,,---,0.00,VWS V14.01,2013-08-13 05:21:00,
2013-08-12 22:26:00,62.7,57.1,29.85,SW,215,0.0,0.0,82,0.00,,---,0.00,VWS V14.01,2013-08-13 05:26:00,
2013-08-12 22:36:00,62.6,57.0,29.85,SW,215,0.0,0.0,82,0.00,,---,0.00,VWS V14.01,2013-08-13 05:36:00,
2013-08-12 22:41:00,62.4,56.8,29.85,SW,215,0.0,0.0,82,0.00,,---,0.00,VWS V14.01,2013-08-13 05:41:00,
2013-08-12 22:46:00,62.3,56.7,29.84,SW,215,0.0,0.0,82,0.00,,---,0.00,VWS V14.01,2013-08-13 05:46:00,
2013-08-12 22:51:00,62.1,56.5,29.84,SW,215,0.0,0.0,82,0.00,,---,0.00,VWS V14.01,2013-08-13 05:51:00,
2013-08-12 22:56:00,62.0,56.5,29.84,SW,215,0.0,0.0,82,0.00,,---,0.00,VWS V14.01,2013-08-13 05:56:00,
2013-08-12 23:01:00,62.0,56.5,29.84,SW,215,0.0,0.0,82,0.00,,---,0.00,VWS V14.01,2013-08-13 06:01:00,
2013-08-12 23:11:00,61.6,56.1,29.84,SW,215,0.0,0.0,82,0.00,,---,0.00,VWS V14.01,2013-08-13 06:11:00,
2013-08-12 23:21:00,61.3,56.1,29.85,SW,215,0.0,0.0,83,0.00,,---,0.00,VWS V14.01,2013-08-13 06:21:00,
2013-08-12 23:26:00,61.2,56.0,29.85,SW,215,0.0,0.0,83,0.00,,---,0.00,VWS V14.01,2013-08-13 06:26:00,
2013-08-12 23:31:00,61.0,55.8,29.85,SW,215,0.0,0.0,83,0.00,,---,0.00,VWS V14.01,2013-08-13 06:31:00,
2013-08-12 23:41:00,60.7,55.5,29.85,SW,215,0.0,0.0,83,0.00,,---,0.00,VWS V14.01,2013-08-13 06:41:00,
2013-08-12 23:51:00,60.5,55.3,29.84,SW,215,0.0,0.0,83,0.00,,---,0.00,VWS V14.01,2013-08-13 06:51:00,
2013-08-12 23:56:00,60.4,55.2,29.84,SW,215,0.0,0.0,83,0.00,,---,0.00,VWS V14.01,2013-08-13 06:56:00,